Year,Month,Day,Hour,Minute,Value (Times are PST for temperature in C)
2013,07,06,00,00,14.00
2013,07,06,00,01,14.10
2013,07,06,00,02,14.10
2013,07,06,00,03,14.10
2013,07,06,00,04,14.10
2013,07,06,00,05,14.20
2013,07,06,00,06,14.20
2013,07,06,00,07,14.20
2013,07,06,00,08,14.20
2013,07,06,00,09,14.30
2013,07,06,00,10,14.30
2013,07,06,00,11,14.40
2013,07,06,00,12,14.40
2013,07,06,00,13,14.40
2013,07,06,00,14,14.50
2013,07,06,00,15,14.60
2013,07,06,00,16,14.60
2013,07,06,00,17,14.60
2013,07,06,00,18,14.70
2013,07,06,00,19,14.70
2013,07,06,00,20,14.70
2013,07,06,00,21,14.80
2013,07,06,00,22,14.80
2013,07,06,00,23,14.80
2013,07,06,00,24,14.90
2013,07,06,00,25,14.90
2013,07,06,00,26,15.00
2013,07,06,00,27,15.10
2013,07,06,00,28,15.10
2013,07,06,00,29,15.20
2013,07,06,00,30,15.20
2013,07,06,00,31,15.20
2013,07,06,00,32,15.30
2013,07,06,00,33,15.30
2013,07,06,00,34,15.30
2013,07,06,00,35,15.30
2013,07,06,00,36,15.40
2013,07,06,00,37,15.40
2013,07,06,00,38,15.50
2013,07,06,00,39,15.50
2013,07,06,00,40,15.60
2013,07,06,00,41,15.60
2013,07,06,00,42,15.60
2013,07,06,00,43,15.70
2013,07,06,00,44,15.70
2013,07,06,00,45,15.70
2013,07,06,00,46,15.80
2013,07,06,00,47,15.80
2013,07,06,00,48,15.90
2013,07,06,00,49,15.90
2013,07,06,00,50,15.90
2013,07,06,00,51,16.00
2013,07,06,00,52,16.00
2013,07,06,00,53,16.10
2013,07,06,00,54,16.10
2013,07,06,00,55,16.20
2013,07,06,00,56,16.20
2013,07,06,00,57,16.30
2013,07,06,00,58,16.30
2013,07,06,00,59,16.30
2013,07,06,01,00,16.40
2013,07,06,01,01,16.40
2013,07,06,01,02,16.40
2013,07,06,01,03,16.40
2013,07,06,01,04,16.40
2013,07,06,01,05,16.50
2013,07,06,01,06,16.50
2013,07,06,01,07,16.50
2013,07,06,01,08,16.60
2013,07,06,01,09,16.60
2013,07,06,01,10,16.60
2013,07,06,01,11,16.70
2013,07,06,01,12,16.70
2013,07,06,01,13,16.70
2013,07,06,01,14,16.70
2013,07,06,01,15,16.80
2013,07,06,01,16,16.80
2013,07,06,01,17,16.80
2013,07,06,01,18,16.90
2013,07,06,01,19,16.90
2013,07,06,01,20,16.90
2013,07,06,01,21,17.00
2013,07,06,01,22,17.00
2013,07,06,01,23,17.10
2013,07,06,01,24,17.10
2013,07,06,01,25,17.10
2013,07,06,01,26,17.00
2013,07,06,01,27,17.00
2013,07,06,01,28,17.00
2013,07,06,01,29,17.00
2013,07,06,01,30,17.00
2013,07,06,01,31,16.90
2013,07,06,01,32,16.90
2013,07,06,01,33,16.90
2013,07,06,01,34,16.90
2013,07,06,01,35,17.00
2013,07,06,01,36,17.10
2013,07,06,01,37,17.10
2013,07,06,01,38,17.20
2013,07,06,01,39,17.20
2013,07,06,01,40,17.20
2013,07,06,01,41,17.30
2013,07,06,01,42,17.30
2013,07,06,01,43,17.40
2013,07,06,01,44,17.40
2013,07,06,01,45,17.40
2013,07,06,01,46,17.40
2013,07,06,01,47,17.50
2013,07,06,01,48,17.50
2013,07,06,01,49,17.50
2013,07,06,01,50,17.40
2013,07,06,01,51,17.40
2013,07,06,01,52,17.30
2013,07,06,01,53,17.30
2013,07,06,01,54,17.30
2013,07,06,01,55,17.30
2013,07,06,01,56,17.20
2013,07,06,01,57,17.20
2013,07,06,01,58,17.30
2013,07,06,01,59,17.30
2013,07,06,02,00,17.30
2013,07,06,02,01,17.20
2013,07,06,02,02,17.20
2013,07,06,02,03,17.30
2013,07,06,02,04,17.30
2013,07,06,02,05,17.40
2013,07,06,02,06,17.50
2013,07,06,02,07,17.60
2013,07,06,02,08,17.70
2013,07,06,02,09,17.80
2013,07,06,02,10,17.80
2013,07,06,02,11,17.90
2013,07,06,02,12,17.90
2013,07,06,02,13,18.00
2013,07,06,02,14,18.10
2013,07,06,02,15,18.10
2013,07,06,02,16,18.10
2013,07,06,02,17,18.00
2013,07,06,02,18,17.90
2013,07,06,02,19,17.90
2013,07,06,02,20,17.80
2013,07,06,02,21,17.80
2013,07,06,02,22,17.80
2013,07,06,02,23,17.70
2013,07,06,02,24,17.70
2013,07,06,02,25,17.60
2013,07,06,02,26,17.60
2013,07,06,02,27,17.50
2013,07,06,02,28,17.50
2013,07,06,02,29,17.40
2013,07,06,02,30,17.40
2013,07,06,02,31,17.40
2013,07,06,02,32,17.50
2013,07,06,02,33,17.60
2013,07,06,02,34,17.70
2013,07,06,02,35,17.80
2013,07,06,02,36,17.80
2013,07,06,02,37,17.80
2013,07,06,02,38,17.80
2013,07,06,02,39,17.80
2013,07,06,02,40,17.80
2013,07,06,02,41,17.80
2013,07,06,02,42,17.70
2013,07,06,02,43,17.70
2013,07,06,02,44,17.80
2013,07,06,02,45,17.80
2013,07,06,02,46,17.70
2013,07,06,02,47,17.60
2013,07,06,02,48,17.60
2013,07,06,02,49,17.60
2013,07,06,02,50,17.70
2013,07,06,02,51,17.80
2013,07,06,02,52,17.80
2013,07,06,02,53,17.90
2013,07,06,02,54,17.90
2013,07,06,02,55,17.90
2013,07,06,02,56,17.90
2013,07,06,02,57,18.00
2013,07,06,02,58,18.10
2013,07,06,02,59,18.10
2013,07,06,03,00,18.10
2013,07,06,03,01,18.10
2013,07,06,03,02,18.10
2013,07,06,10,03,18.10
2013,07,06,10,04,18.10
2013,07,06,10,05,18.10
2013,07,06,10,06,18.00
2013,07,06,10,07,18.00
2013,07,06,10,08,17.90
2013,07,06,10,09,17.80
2013,07,06,10,10,17.70
2013,07,06,10,11,17.70
2013,07,06,10,12,17.60
2013,07,06,10,13,17.50
2013,07,06,10,14,17.40
2013,07,06,10,15,17.40
2013,07,06,10,16,17.40
2013,07,06,10,17,17.40
2013,07,06,10,18,17.40
2013,07,06,10,19,17.50
2013,07,06,10,20,17.50
2013,07,06,10,21,17.50
2013,07,06,10,22,17.40
2013,07,06,10,23,17.40
2013,07,06,10,24,17.40
2013,07,06,10,25,17.40
2013,07,06,10,26,17.40
2013,07,06,10,27,17.40
2013,07,06,10,28,17.50
2013,07,06,10,29,17.50
2013,07,06,10,30,17.60
2013,07,06,10,31,17.70
2013,07,06,10,32,17.80
2013,07,06,10,33,17.80
2013,07,06,10,34,17.90
2013,07,06,10,35,18.00
2013,07,06,10,36,18.00
2013,07,06,10,37,18.00
2013,07,06,10,38,18.00
2013,07,06,10,39,18.00
2013,07,06,10,40,18.00
2013,07,06,10,41,18.00
2013,07,06,10,42,18.10
2013,07,06,10,43,18.00
2013,07,06,10,44,18.00
2013,07,06,10,45,18.10
2013,07,06,10,46,18.10
2013,07,06,10,47,18.20
2013,07,06,10,48,18.20
2013,07,06,10,49,18.10
2013,07,06,10,50,18.00
2013,07,06,10,51,17.90
2013,07,06,10,52,17.90
2013,07,06,10,53,17.90
2013,07,06,10,54,18.00
2013,07,06,10,55,18.00
2013,07,06,10,56,18.10
2013,07,06,10,57,18.30
2013,07,06,10,58,18.40
2013,07,06,10,59,18.60
2013,07,06,11,00,18.70
2013,07,06,11,01,18.70
2013,07,06,11,02,18.60
2013,07,06,11,03,18.60
2013,07,06,11,04,18.60
2013,07,06,11,05,18.60
2013,07,06,11,06,18.70
2013,07,06,11,07,18.80
2013,07,06,11,08,18.90
2013,07,06,11,09,19.00
2013,07,06,11,10,19.10
2013,07,06,11,11,19.20
2013,07,06,11,12,19.20
2013,07,06,11,13,19.20
2013,07,06,11,14,19.10
2013,07,06,11,15,19.20
2013,07,06,11,16,19.20
2013,07,06,11,17,19.20
2013,07,06,11,18,19.20
2013,07,06,11,19,19.30
2013,07,06,11,20,19.30
2013,07,06,11,21,19.20
2013,07,06,11,22,19.20
2013,07,06,11,23,19.10
2013,07,06,11,24,19.10
2013,07,06,11,25,19.10
2013,07,06,11,26,19.10
2013,07,06,11,27,19.10
2013,07,06,11,28,19.10
2013,07,06,11,29,19.20
2013,07,06,11,30,19.20
2013,07,06,11,31,19.20
2013,07,06,11,32,19.20
2013,07,06,11,33,19.20
2013,07,06,11,34,19.20
2013,07,06,11,35,19.10
2013,07,06,11,36,19.10
2013,07,06,11,37,19.10
2013,07,06,11,38,19.10
2013,07,06,11,39,19.20
2013,07,06,11,40,19.20
2013,07,06,11,41,19.20
2013,07,06,11,42,19.10
2013,07,06,11,43,19.00
2013,07,06,11,44,18.80
2013,07,06,11,45,18.70
2013,07,06,11,46,18.70
2013,07,06,11,47,18.60
2013,07,06,11,48,18.50
2013,07,06,11,49,18.50
2013,07,06,11,50,18.50
2013,07,06,11,51,18.40
2013,07,06,11,52,18.40
2013,07,06,11,53,18.40
2013,07,06,11,54,18.40
2013,07,06,11,55,18.40
2013,07,06,11,56,18.40
2013,07,06,11,57,18.50
2013,07,06,11,58,18.50
2013,07,06,11,59,18.60
2013,07,06,12,00,18.60
2013,07,06,12,01,18.70
2013,07,06,12,02,18.70
2013,07,06,12,03,18.60
2013,07,06,12,04,18.60
2013,07,06,12,05,18.60
2013,07,06,12,06,18.60
2013,07,06,12,07,18.60
2013,07,06,12,08,18.60
2013,07,06,12,09,18.60
2013,07,06,12,10,18.60
2013,07,06,12,11,18.70
2013,07,06,12,12,18.70
2013,07,06,12,13,18.70
2013,07,06,12,14,18.60
2013,07,06,12,15,18.60
2013,07,06,12,16,18.60
2013,07,06,12,17,18.70
2013,07,06,12,18,18.70
2013,07,06,12,19,18.70
2013,07,06,12,20,18.70
2013,07,06,12,21,18.80
2013,07,06,12,22,18.80
2013,07,06,12,23,18.80
2013,07,06,12,24,18.80
2013,07,06,12,25,18.90
2013,07,06,12,26,18.90
2013,07,06,12,27,18.90
2013,07,06,12,28,18.90
2013,07,06,12,29,18.90
2013,07,06,12,30,18.90
2013,07,06,12,31,19.00
2013,07,06,12,32,19.10
2013,07,06,12,33,19.20
2013,07,06,12,34,19.30
2013,07,06,12,35,19.40
2013,07,06,12,36,19.50
2013,07,06,12,37,19.60
2013,07,06,12,38,19.60
2013,07,06,12,39,19.70
2013,07,06,12,40,19.60
2013,07,06,12,41,19.60
2013,07,06,12,42,19.50
2013,07,06,12,43,19.40
2013,07,06,12,44,19.40
2013,07,06,12,45,19.40
2013,07,06,12,46,19.40
2013,07,06,12,47,19.40
2013,07,06,12,48,19.40
2013,07,06,12,49,19.40
2013,07,06,12,50,19.40
2013,07,06,12,51,19.40
2013,07,06,12,52,19.40
2013,07,06,12,53,19.40
2013,07,06,12,54,19.40
2013,07,06,12,55,19.40
2013,07,06,12,56,19.50
2013,07,06,12,57,19.50
2013,07,06,12,58,19.50
2013,07,06,12,59,19.60
2013,07,06,13,00,19.60
2013,07,06,13,01,19.60
2013,07,06,13,02,19.60
2013,07,06,13,03,19.70
2013,07,06,13,04,19.70
2013,07,06,13,05,19.70
2013,07,06,13,06,19.70
2013,07,06,13,07,19.70
2013,07,06,13,08,19.70
2013,07,06,13,09,19.70
2013,07,06,13,10,19.80
2013,07,06,13,11,19.80
2013,07,06,13,12,19.80
2013,07,06,13,13,19.90
2013,07,06,13,14,19.90
2013,07,06,13,15,19.80
2013,07,06,13,16,19.80
2013,07,06,13,17,19.80
2013,07,06,13,18,19.80
2013,07,06,13,19,19.80
2013,07,06,13,20,19.80
2013,07,06,13,21,19.80
2013,07,06,13,22,19.80
2013,07,06,13,23,19.80
2013,07,06,13,24,19.80
2013,07,06,13,25,19.90
2013,07,06,13,26,19.90
2013,07,06,13,27,20.00
2013,07,06,13,28,20.10
2013,07,06,13,29,20.10
2013,07,06,13,30,20.10
2013,07,06,13,31,20.30
2013,07,06,13,32,20.30
2013,07,06,13,33,20.30
2013,07,06,13,34,20.30
2013,07,06,13,35,20.30
2013,07,06,13,36,20.20
2013,07,06,13,37,20.20
2013,07,06,13,38,20.20
2013,07,06,13,39,20.20
2013,07,06,13,40,20.20
2013,07,06,13,41,20.30
2013,07,06,13,42,20.40
2013,07,06,13,43,20.50
2013,07,06,13,44,20.60
2013,07,06,13,45,20.60
2013,07,06,13,46,20.70
2013,07,06,13,47,20.80
2013,07,06,13,48,20.90
2013,07,06,13,49,20.80
2013,07,06,13,50,20.80
2013,07,06,13,51,20.90
2013,07,06,13,52,20.90
2013,07,06,13,53,20.90
2013,07,06,13,54,20.90
2013,07,06,13,55,20.90
2013,07,06,13,56,20.90
2013,07,06,13,57,20.80
2013,07,06,13,58,20.70
2013,07,06,13,59,20.60
2013,07,06,14,00,20.50
2013,07,06,14,01,20.50
2013,07,06,14,02,20.50
2013,07,06,14,03,20.50
2013,07,06,14,04,20.60
2013,07,06,14,05,20.70
2013,07,06,14,06,20.80
2013,07,06,14,07,20.90
2013,07,06,14,08,21.00
2013,07,06,14,09,21.00
2013,07,06,14,10,21.10
2013,07,06,14,11,21.20
2013,07,06,14,12,21.10
2013,07,06,14,13,21.10
2013,07,06,14,14,21.20
2013,07,06,14,15,21.20
2013,07,06,14,16,21.30
2013,07,06,14,17,21.30
2013,07,06,14,18,21.30
2013,07,06,14,19,21.30
2013,07,06,14,20,21.30
2013,07,06,14,21,21.30
2013,07,06,14,22,21.30
2013,07,06,14,23,21.30
2013,07,06,14,24,21.30
2013,07,06,14,25,21.30
2013,07,06,14,26,21.30
2013,07,06,14,27,21.30
2013,07,06,14,28,21.30
2013,07,06,14,29,21.40
2013,07,06,14,30,21.30
2013,07,06,14,31,21.20
2013,07,06,14,32,21.20
2013,07,06,14,33,21.20
2013,07,06,14,34,21.30
2013,07,06,14,35,21.40
2013,07,06,14,36,21.40
2013,07,06,14,37,21.50
2013,07,06,14,38,21.60
2013,07,06,14,39,21.60
2013,07,06,14,40,21.70
2013,07,06,14,41,21.70
2013,07,06,14,42,21.70
2013,07,06,14,43,21.70
2013,07,06,14,44,21.60
2013,07,06,14,45,21.60
2013,07,06,14,46,21.60
2013,07,06,14,47,21.60
2013,07,06,14,48,21.60
2013,07,06,14,49,21.60
2013,07,06,14,50,21.60
2013,07,06,14,51,21.70
2013,07,06,14,52,21.80
2013,07,06,14,53,21.90
2013,07,06,14,54,22.00
2013,07,06,14,55,22.00
2013,07,06,14,56,22.00
2013,07,06,14,57,22.10
2013,07,06,14,58,22.10
2013,07,06,14,59,22.10
2013,07,06,15,00,22.00
2013,07,06,15,01,21.90
2013,07,06,15,02,21.80
2013,07,06,15,03,21.80
2013,07,06,15,04,21.80
2013,07,06,15,05,21.80
2013,07,06,15,06,21.80
2013,07,06,15,07,21.80
2013,07,06,15,08,21.80
2013,07,06,15,09,21.80
2013,07,06,15,10,21.80
2013,07,06,15,11,21.80
2013,07,06,15,12,21.80
2013,07,06,15,13,21.80
2013,07,06,15,14,21.80
2013,07,06,15,15,21.80
2013,07,06,15,16,21.80
2013,07,06,15,17,21.80
2013,07,06,15,18,21.90
2013,07,06,15,19,21.90
2013,07,06,15,20,21.90
2013,07,06,15,21,21.90
2013,07,06,15,22,21.90
2013,07,06,15,23,22.00
2013,07,06,15,24,22.20
2013,07,06,15,25,22.30
2013,07,06,15,26,22.40
2013,07,06,15,27,22.50
2013,07,06,15,28,22.50
2013,07,06,15,29,22.60
2013,07,06,15,30,22.60
2013,07,06,15,31,22.60
2013,07,06,15,32,22.60
2013,07,06,15,33,22.60
2013,07,06,15,34,22.60
2013,07,06,15,35,22.70
2013,07,06,15,36,22.70
2013,07,06,15,37,22.70
2013,07,06,15,38,22.70
2013,07,06,15,39,22.70
2013,07,06,15,40,22.60
2013,07,06,15,41,22.60
2013,07,06,15,42,22.60
2013,07,06,15,43,22.50
2013,07,06,15,44,22.50
2013,07,06,15,45,22.40
2013,07,06,15,46,22.40
2013,07,06,15,47,22.50
2013,07,06,15,48,22.50
2013,07,06,15,49,22.60
2013,07,06,15,50,22.60
2013,07,06,15,51,22.70
2013,07,06,15,52,22.70
2013,07,06,15,53,22.70
2013,07,06,15,54,22.80
2013,07,06,15,55,22.80
2013,07,06,15,56,22.90
2013,07,06,15,57,23.00
2013,07,06,15,58,23.00
2013,07,06,15,59,23.10
2013,07,06,16,00,23.10
2013,07,06,16,01,23.20
2013,07,06,16,02,23.30
2013,07,06,16,03,23.30
2013,07,06,16,04,23.40
2013,07,06,16,05,23.40
2013,07,06,16,06,23.50
2013,07,06,16,07,23.50
2013,07,06,16,08,23.60
2013,07,06,16,09,23.60
2013,07,06,16,10,23.60
2013,07,06,16,11,23.50
2013,07,06,16,12,23.50
2013,07,06,16,13,23.40
2013,07,06,16,14,23.40
2013,07,06,16,15,23.30
2013,07,06,16,16,23.30
2013,07,06,16,17,23.40
2013,07,06,16,18,23.40
2013,07,06,16,19,23.40
2013,07,06,16,20,23.40
2013,07,06,16,21,23.40
2013,07,06,16,22,23.40
2013,07,06,16,23,23.50
2013,07,06,16,24,23.60
2013,07,06,16,25,23.70
2013,07,06,16,26,23.80
2013,07,06,16,27,23.90
2013,07,06,16,28,23.90
2013,07,06,16,29,24.00
2013,07,06,16,30,24.00
2013,07,06,16,31,24.00
2013,07,06,16,32,23.90
2013,07,06,16,33,23.90
2013,07,06,16,34,23.80
2013,07,06,16,35,23.80
2013,07,06,16,36,23.70
2013,07,06,16,37,23.70
2013,07,06,16,38,23.70
2013,07,06,16,39,23.70
2013,07,06,16,40,23.60
2013,07,06,16,41,23.60
2013,07,06,16,42,23.60
2013,07,06,16,43,23.60
2013,07,06,16,44,23.70
2013,07,06,16,45,23.70
2013,07,06,16,46,23.70
2013,07,06,16,47,23.70
2013,07,06,16,48,23.70
2013,07,06,16,49,23.70
2013,07,06,16,50,23.70
2013,07,06,16,51,23.80
2013,07,06,16,52,23.80
2013,07,06,16,53,23.80
2013,07,06,16,54,23.80
2013,07,06,16,55,23.80
2013,07,06,16,56,23.80
2013,07,06,16,57,23.80
2013,07,06,16,58,23.80
2013,07,06,16,59,23.80
2013,07,06,17,00,23.80
2013,07,06,17,01,23.80
2013,07,06,17,02,23.80
2013,07,06,17,03,23.80
2013,07,06,17,04,23.80
2013,07,06,17,05,23.80
2013,07,06,17,06,23.80
2013,07,06,17,07,23.80
2013,07,06,17,08,23.80
2013,07,06,17,09,23.80
2013,07,06,17,10,23.80
2013,07,06,17,11,23.80
2013,07,06,17,12,23.80
2013,07,06,17,13,23.90
2013,07,06,17,14,23.90
2013,07,06,17,15,23.90
2013,07,06,17,16,24.00
2013,07,06,17,17,24.10
2013,07,06,17,18,24.10
2013,07,06,17,19,24.10
2013,07,06,17,20,24.20
2013,07,06,17,21,24.30
2013,07,06,17,22,24.30
2013,07,06,17,23,24.30
2013,07,06,17,24,24.30
2013,07,06,17,25,24.30
2013,07,06,17,26,24.30
2013,07,06,17,27,24.20
2013,07,06,17,28,24.20
2013,07,06,17,29,24.20
2013,07,06,17,30,24.20
2013,07,06,17,31,24.20
2013,07,06,17,32,24.20
2013,07,06,17,33,24.20
2013,07,06,17,34,24.10
2013,07,06,17,35,24.20
2013,07,06,17,36,24.20
2013,07,06,17,37,24.20
2013,07,06,17,38,24.30
2013,07,06,17,39,24.30
2013,07,06,17,40,24.40
2013,07,06,17,41,24.40
2013,07,06,17,42,24.40
2013,07,06,17,43,24.40
2013,07,06,17,44,24.40
2013,07,06,17,45,24.50
2013,07,06,17,46,24.50
2013,07,06,17,47,24.60
2013,07,06,17,48,24.60
2013,07,06,17,49,24.60
2013,07,06,17,50,24.60
2013,07,06,17,51,24.60
2013,07,06,17,52,24.60
2013,07,06,17,53,24.70
2013,07,06,17,54,24.70
2013,07,06,17,55,24.70
2013,07,06,17,56,24.70
2013,07,06,17,57,24.70
2013,07,06,17,58,24.70
2013,07,06,17,59,24.70
2013,07,06,18,00,24.70
2013,07,06,18,01,24.70
2013,07,06,18,02,24.80
2013,07,06,18,03,24.80
2013,07,06,18,04,24.80
2013,07,06,18,05,24.90
2013,07,06,18,06,24.90
2013,07,06,18,07,24.90
2013,07,06,18,08,24.90
2013,07,06,18,09,24.90
2013,07,06,18,10,24.90
2013,07,06,18,11,25.00
2013,07,06,18,12,25.00
2013,07,06,18,13,25.00
2013,07,06,18,14,25.10
2013,07,06,18,15,25.20
2013,07,06,18,16,25.30
2013,07,06,18,17,25.30
2013,07,06,18,18,25.40
2013,07,06,18,19,25.40
2013,07,06,18,20,25.40
2013,07,06,18,21,25.40
2013,07,06,18,22,25.30
2013,07,06,18,23,25.30
2013,07,06,18,24,25.20
2013,07,06,18,25,25.20
2013,07,06,18,26,25.20
2013,07,06,18,27,25.10
2013,07,06,18,28,25.00
2013,07,06,18,29,24.90
2013,07,06,18,30,24.70
2013,07,06,18,31,24.70
2013,07,06,18,32,24.70
2013,07,06,18,33,24.60
2013,07,06,18,34,24.60
2013,07,06,18,35,24.60
2013,07,06,18,36,24.60
2013,07,06,18,37,24.70
2013,07,06,18,38,24.70
2013,07,06,18,39,24.70
2013,07,06,18,40,24.70
2013,07,06,18,41,24.60
2013,07,06,18,42,24.60
2013,07,06,18,43,24.60
2013,07,06,18,44,24.60
2013,07,06,18,45,24.60
2013,07,06,18,46,24.60
2013,07,06,18,47,24.60
2013,07,06,18,48,24.60
2013,07,06,18,49,24.50
2013,07,06,18,50,24.40
2013,07,06,18,51,24.30
2013,07,06,18,52,24.30
2013,07,06,18,53,24.20
2013,07,06,18,54,24.20
2013,07,06,18,55,24.20
2013,07,06,18,56,24.10
2013,07,06,18,57,24.00
2013,07,06,18,58,24.00
2013,07,06,18,59,23.90
2013,07,06,19,00,23.90
2013,07,06,19,01,23.90
2013,07,06,19,02,23.90
2013,07,06,19,03,24.00
2013,07,06,19,04,24.00
2013,07,06,19,05,24.00
2013,07,06,19,06,24.00
2013,07,06,19,07,24.00
2013,07,06,19,08,24.00
2013,07,06,19,09,24.00
2013,07,06,19,10,24.10
2013,07,06,19,11,24.00
2013,07,06,19,12,24.00
2013,07,06,19,13,23.90
2013,07,06,19,14,23.90
2013,07,06,19,15,23.90
2013,07,06,19,16,23.80
2013,07,06,19,17,23.80
2013,07,06,19,18,23.70
2013,07,06,19,19,23.50
2013,07,06,19,20,23.50
2013,07,06,19,21,23.40
2013,07,06,19,22,23.30
2013,07,06,19,23,23.30
2013,07,06,19,24,23.20
2013,07,06,19,25,23.10
2013,07,06,19,26,23.10
2013,07,06,19,27,23.10
2013,07,06,19,28,23.00
2013,07,06,19,29,22.90
2013,07,06,19,30,22.90
2013,07,06,19,31,22.80
2013,07,06,19,32,22.70
2013,07,06,19,33,22.60
2013,07,06,19,34,22.60
2013,07,06,19,35,22.50
2013,07,06,19,36,22.40
2013,07,06,19,37,22.30
2013,07,06,19,38,22.30
2013,07,06,19,39,22.20
2013,07,06,19,40,22.10
2013,07,06,19,41,22.00
2013,07,06,19,42,22.00
2013,07,06,19,43,21.90
2013,07,06,19,44,21.80
2013,07,06,19,45,21.70
2013,07,06,19,46,21.60
2013,07,06,19,47,21.60
2013,07,06,19,48,21.50
2013,07,06,19,49,21.50
2013,07,06,19,50,21.40
2013,07,06,19,51,21.40
2013,07,06,19,52,21.30
2013,07,06,19,53,21.30
2013,07,06,19,54,21.20
2013,07,06,19,55,21.20
2013,07,06,19,56,21.20
2013,07,06,19,57,21.10
2013,07,06,19,58,21.10
2013,07,06,19,59,21.10
2013,07,06,20,00,21.00
2013,07,06,20,01,21.00
2013,07,06,20,02,20.90
2013,07,06,20,03,20.90
2013,07,06,20,04,20.90
2013,07,06,20,05,20.80
2013,07,06,20,06,20.80
2013,07,06,20,07,20.70
2013,07,06,20,08,20.60
2013,07,06,20,09,20.60
2013,07,06,20,10,20.50
2013,07,06,20,11,20.50
2013,07,06,20,12,20.50
2013,07,06,20,13,20.40
2013,07,06,20,14,20.40
2013,07,06,20,15,20.40
2013,07,06,20,16,20.30
2013,07,06,20,17,20.30
2013,07,06,20,18,20.20
2013,07,06,20,19,20.20
2013,07,06,20,20,20.20
2013,07,06,20,21,20.10
2013,07,06,20,22,20.00
2013,07,06,20,23,20.00
2013,07,06,20,24,19.90
2013,07,06,20,25,19.80
2013,07,06,20,26,19.80
2013,07,06,20,27,19.80
2013,07,06,20,28,19.70
2013,07,06,20,29,19.70
2013,07,06,20,30,19.70
2013,07,06,20,31,19.60
2013,07,06,20,32,19.60
2013,07,06,20,33,19.60
2013,07,06,20,34,19.60
2013,07,06,20,35,19.50
2013,07,06,20,36,19.50
2013,07,06,20,37,19.40
2013,07,06,20,38,19.40
2013,07,06,20,39,19.40
2013,07,06,20,40,19.40
2013,07,06,20,41,19.40
2013,07,06,20,42,19.30
2013,07,06,20,43,19.30
2013,07,06,20,44,19.30
2013,07,06,20,45,19.30
2013,07,06,20,46,19.20
2013,07,06,20,47,19.20
2013,07,06,20,48,19.20
2013,07,06,20,49,19.20
2013,07,06,20,50,19.20
2013,07,06,20,51,19.10
2013,07,06,20,52,19.10
2013,07,06,20,53,19.10
2013,07,06,20,54,19.10
2013,07,06,20,55,19.10
2013,07,06,20,56,19.10
2013,07,06,20,57,19.10
2013,07,06,20,58,19.00
2013,07,06,20,59,19.00
2013,07,06,21,00,19.00
2013,07,06,21,01,19.00
2013,07,06,21,02,18.90
2013,07,06,21,03,18.90
2013,07,06,21,04,18.90
2013,07,06,21,05,18.90
2013,07,06,21,06,18.90
2013,07,06,21,07,18.90
2013,07,06,21,08,18.90
2013,07,06,21,09,18.80
2013,07,06,21,10,18.80
2013,07,06,21,11,18.80
2013,07,06,21,12,18.80
2013,07,06,21,13,18.80
2013,07,06,21,14,18.70
2013,07,06,21,15,18.70
2013,07,06,21,16,18.70
2013,07,06,21,17,18.70
2013,07,06,21,18,18.60
2013,07,06,21,19,18.60
2013,07,06,21,20,18.50
2013,07,06,21,21,18.50
2013,07,06,21,22,18.40
2013,07,06,21,23,18.40
2013,07,06,21,24,18.30
2013,07,06,21,25,18.30
2013,07,06,21,26,18.30
2013,07,06,21,27,18.30
2013,07,06,21,28,18.20
2013,07,06,21,29,18.20
2013,07,06,21,30,18.20
2013,07,06,21,31,18.20
2013,07,06,21,32,18.20
2013,07,06,21,33,18.20
2013,07,06,21,34,18.10
2013,07,06,21,35,18.10
2013,07,06,21,36,18.00
2013,07,06,21,37,18.00
2013,07,06,21,38,18.00
2013,07,06,21,39,17.90
2013,07,06,21,40,17.90
2013,07,06,21,41,17.90
2013,07,06,21,42,17.80
2013,07,06,21,43,17.80
2013,07,06,21,44,17.80
2013,07,06,21,45,17.80
2013,07,06,21,46,17.70
2013,07,06,21,47,17.70
2013,07,06,21,48,17.60
2013,07,06,21,49,17.60
2013,07,06,21,50,17.60
2013,07,06,21,51,17.50
2013,07,06,21,52,17.40
2013,07,06,21,53,17.40
2013,07,06,21,54,17.40
2013,07,06,21,55,17.40
2013,07,06,21,56,17.30
2013,07,06,21,57,17.30
2013,07,06,21,58,17.30
2013,07,06,21,59,17.20
2013,07,06,22,00,17.20
2013,07,06,22,01,17.20
2013,07,06,22,02,17.10
2013,07,06,22,03,17.10
2013,07,06,22,04,17.10
2013,07,06,22,05,17.00
2013,07,06,22,06,17.00
2013,07,06,22,07,16.90
2013,07,06,22,08,16.90
2013,07,06,22,09,16.90
2013,07,06,22,10,16.80
2013,07,06,22,11,16.80
2013,07,06,22,12,16.80
2013,07,06,22,13,16.80
2013,07,06,22,14,16.80
2013,07,06,22,15,16.70
2013,07,06,22,16,16.70
2013,07,06,22,17,16.70
2013,07,06,22,18,16.70
2013,07,06,22,19,16.70
2013,07,06,22,20,16.70
2013,07,06,22,21,16.60
2013,07,06,22,22,16.60
2013,07,06,22,23,16.60
2013,07,06,22,24,16.60
2013,07,06,22,25,16.50
2013,07,06,22,26,16.50
2013,07,06,22,27,16.40
2013,07,06,22,28,16.40
2013,07,06,22,29,16.30
2013,07,06,22,30,16.30
2013,07,06,22,31,16.30
2013,07,06,22,32,16.20
2013,07,06,22,33,16.20
2013,07,06,22,34,16.20
2013,07,06,22,35,16.10
2013,07,06,22,36,16.10
2013,07,06,22,37,16.00
2013,07,06,22,38,16.00
2013,07,06,22,39,15.90
2013,07,06,22,40,15.90
2013,07,06,22,41,15.80
2013,07,06,22,42,15.80
2013,07,06,22,43,15.70
2013,07,06,22,44,15.70
2013,07,06,22,45,15.60
2013,07,06,22,46,15.60
2013,07,06,22,47,15.60
2013,07,06,22,48,15.50
2013,07,06,22,49,15.50
2013,07,06,22,50,15.40
2013,07,06,22,51,15.40
2013,07,06,22,52,15.40
2013,07,06,22,53,15.40
2013,07,06,22,54,15.30
2013,07,06,22,55,15.30
2013,07,06,22,56,15.30
2013,07,06,22,57,15.30
2013,07,06,22,58,15.20
2013,07,06,22,59,15.20
2013,07,06,23,00,15.20
2013,07,06,23,01,15.20
2013,07,06,23,02,15.20
2013,07,06,23,03,15.10
2013,07,06,23,04,15.10
2013,07,06,23,05,15.10
2013,07,06,23,06,15.10
2013,07,06,23,07,15.10
2013,07,06,23,08,15.10
2013,07,06,23,09,15.00
2013,07,06,23,10,15.00
2013,07,06,23,11,15.00
2013,07,06,23,12,15.00
2013,07,06,23,13,14.90
2013,07,06,23,14,14.90
2013,07,06,23,15,14.90
2013,07,06,23,16,14.90
2013,07,06,23,17,14.90
2013,07,06,23,18,14.90
2013,07,06,23,19,14.80
2013,07,06,23,20,14.80
2013,07,06,23,21,14.80
2013,07,06,23,22,14.80
2013,07,06,23,23,14.80
2013,07,06,23,24,14.80
2013,07,06,23,25,14.80
2013,07,06,23,26,14.70
2013,07,06,23,27,14.70
2013,07,06,23,28,14.70
2013,07,06,23,29,14.70
2013,07,06,23,30,14.70
2013,07,06,23,31,14.70
2013,07,06,23,32,14.70
2013,07,06,23,33,14.70
2013,07,06,23,34,14.70
2013,07,06,23,35,14.70
2013,07,06,23,36,14.60
2013,07,06,23,37,14.60
2013,07,06,23,38,14.60
2013,07,06,23,39,14.60
2013,07,06,23,40,14.60
2013,07,06,23,41,14.60
2013,07,06,23,42,14.60
2013,07,06,23,43,14.60
2013,07,06,23,44,14.50
2013,07,06,23,45,14.60
2013,07,06,23,46,14.60
2013,07,06,23,47,14.60
2013,07,06,23,48,14.60
2013,07,06,23,49,14.60
2013,07,06,23,50,14.60
2013,07,06,23,51,14.60
2013,07,06,23,52,14.60
2013,07,06,23,53,14.60
2013,07,06,23,54,14.60
2013,07,06,23,55,14.60
2013,07,06,23,56,14.60
2013,07,06,23,57,14.60
2013,07,06,23,58,14.60
2013,07,06,23,59,14.60
